Date String (YYYY-MM-DD hh:mm:ss) UTC,Instrument flags,Ambient pressure (hPa),Sample flow (lpm),Bypass flow (lpm),Sample temperature (°C),Ambient temperature (°C),ASC tube jacket temperature (°C),LED temperature (°C),Box temperature (°C),Sample RH (%),Span deviation,Mass concentration (μg/m³),Mass concentration (μg/m³),Mass concentration (μg/m³)
DateTimeUTC,F1_M11,P_M11,Q1_M11,Q2_M11,T1_M11,T2_M11,T3_M11,T4_M11,T5_M11,U1_M11,ZSPAN_M11,X0_M11,X2_M11,X1_M11
2022-08-16 22:00:00,,0831.7,4.99,0.00,30.9,27.6,00.0,39.3,31.8,32.8,0000.0,0011.63,0006.04,0005.46
2022-08-16 22:01:00,,0831.7,5.01,0.00,30.9,27.7,00.0,39.3,31.7,33.1,0000.0,0012.06,0006.17,0005.53
2022-08-16 22:02:00,,0831.7,5.00,0.00,30.8,27.9,00.0,39.3,31.8,33.6,0000.0,0012.24,0006.25,0005.57
2022-08-16 22:03:00,,0831.7,4.99,0.00,30.8,28.0,00.0,39.3,31.8,33.3,0000.0,0012.08,0006.27,0005.60
2022-08-16 22:04:00,,0831.7,5.01,0.00,30.8,28.2,00.0,39.2,31.9,33.1,0000.0,0012.07,0006.27,0005.61
2022-08-16 22:05:00,,0831.6,5.00,0.00,30.7,28.3,00.0,39.2,31.9,33.3,0000.0,0012.04,0006.27,0005.63
2022-08-16 22:06:00,,0831.7,5.00,0.00,30.7,28.4,00.0,39.2,31.9,33.9,0000.0,0012.04,0006.26,0005.63
2022-08-16 22:07:00,,0831.7,5.00,0.00,30.7,28.5,00.0,39.2,32.0,33.5,0000.0,0011.52,0006.24,0005.62
2022-08-16 22:08:00,,0831.6,5.00,0.00,30.7,28.6,00.0,39.2,32.0,33.5,0000.0,0011.49,0006.24,0005.62
2022-08-16 22:09:00,,0831.6,5.00,0.00,30.7,28.7,00.0,39.2,32.0,33.3,0000.0,0011.49,0006.25,0005.60
2022-08-16 22:10:00,,0831.6,5.00,0.00,30.7,28.8,00.0,39.2,32.0,34.1,0000.0,0011.16,0006.24,0005.60
2022-08-16 22:11:00,,0831.5,5.00,0.00,30.7,28.8,00.0,39.2,32.1,34.4,0000.0,0011.06,0006.24,0005.61
2022-08-16 22:12:00,,0831.6,5.01,0.00,30.7,28.9,00.0,39.2,32.1,34.5,0000.0,0010.71,0006.20,0005.61
2022-08-16 22:13:00,,0831.6,5.00,0.00,30.7,28.9,00.0,39.2,32.1,34.6,0000.0,0010.67,0006.20,0005.61
2022-08-16 22:14:00,,0831.6,4.99,0.00,30.6,28.4,00.0,39.2,31.9,34.8,0000.0,0010.50,0006.22,0005.60
2022-08-16 22:15:00,,0831.5,5.01,0.00,30.6,27.7,00.0,39.1,31.7,35.0,0000.0,0010.20,0006.26,0005.61
2022-08-16 22:16:00,,0831.5,5.00,0.00,30.7,27.4,00.0,39.1,31.7,34.7,0000.0,0010.09,0006.29,0005.62
2022-08-16 22:17:00,,0831.5,5.00,0.00,30.6,27.4,00.0,39.0,31.7,34.9,0000.0,0009.43,0006.29,0005.62
2022-08-16 22:18:00,,0831.5,4.99,0.00,30.7,27.4,00.0,39.0,31.7,34.8,0000.0,0009.43,0006.28,0005.62
2022-08-16 22:19:00,,0831.5,4.99,0.00,30.8,27.6,00.0,39.0,31.8,34.9,0000.0,0009.46,0006.27,0005.60
2022-08-16 22:20:00,,0831.5,5.01,0.00,30.9,27.7,00.0,39.0,31.9,34.9,0000.0,0009.65,0006.24,0005.59
2022-08-16 22:21:00,,0831.5,5.00,0.00,31.1,27.9,00.0,39.0,32.0,33.9,0000.0,0009.73,0006.21,0005.56
2022-08-16 22:22:00,,0831.5,5.00,0.00,31.2,28.0,00.0,39.1,32.0,33.6,0000.0,0009.66,0006.17,0005.53
2022-08-16 22:23:00,,0831.5,5.00,0.00,31.2,28.2,00.0,39.1,32.0,33.4,0000.0,0009.63,0006.11,0005.50
2022-08-16 22:24:00,,0831.5,5.00,0.00,31.2,28.3,00.0,39.2,32.0,33.9,0000.0,0009.54,0006.03,0005.47
2022-08-16 22:25:00,,0831.5,5.01,0.00,31.2,28.4,00.0,39.2,32.0,33.2,0000.0,0009.59,0005.98,0005.43
2022-08-16 22:26:00,,0831.5,4.99,0.00,31.2,28.5,00.0,39.3,32.0,33.3,0000.0,0009.52,0005.92,0005.40
2022-08-16 22:27:00,,0831.5,5.00,0.00,31.2,28.6,00.0,39.3,32.1,33.1,0000.0,0009.54,0005.91,0005.37
2022-08-16 22:28:00,,0831.6,5.00,0.00,31.2,28.7,00.0,39.3,32.1,33.2,0000.0,0010.11,0005.91,0005.36
2022-08-16 22:29:00,,0831.5,5.00,0.00,31.2,28.7,00.0,39.4,32.1,34.0,0000.0,0010.20,0005.96,0005.36
2022-08-16 22:30:00,,0831.5,5.00,0.00,31.1,28.8,00.0,39.4,32.1,34.0,0000.0,0010.23,0005.97,0005.37
2022-08-16 22:31:00,,0831.5,5.01,0.00,31.1,28.9,00.0,39.4,32.1,33.9,0000.0,0010.26,0005.96,0005.37
2022-08-16 22:32:00,,0831.5,4.99,0.00,31.1,28.9,00.0,39.4,32.2,33.4,0000.0,0010.38,0006.00,0005.38
2022-08-16 22:33:00,,0831.5,5.00,0.00,31.1,28.8,00.0,39.4,32.1,33.2,0000.0,0011.16,0006.05,0005.39
2022-08-16 22:34:00,,0831.5,5.00,0.00,31.0,28.2,00.0,39.4,31.9,33.5,0000.0,0011.69,0006.11,0005.40
2022-08-16 22:35:00,,0831.5,5.00,0.00,30.9,27.6,00.0,39.3,31.8,34.2,0000.0,0011.70,0006.16,0005.42
2022-08-16 22:36:00,,0831.5,5.01,0.00,30.8,27.4,00.0,39.3,31.7,34.0,0000.0,0011.69,0006.20,0005.45
2022-08-16 22:37:00,,0831.5,4.98,0.00,30.7,27.4,00.0,39.2,31.6,34.3,0000.0,0012.38,0006.27,0005.47
2022-08-16 22:38:00,,0831.5,5.01,0.00,30.6,27.5,00.0,39.2,31.6,34.5,0000.0,0012.59,0006.27,0005.49
2022-08-16 22:39:00,,0831.5,4.98,0.00,30.5,27.6,00.0,39.2,31.7,34.4,0000.0,0012.54,0006.29,0005.49
2022-08-16 22:40:00,,0831.5,5.01,0.00,30.5,27.8,00.0,39.2,31.7,34.3,0000.0,0012.87,0006.25,0005.49
2022-08-16 22:41:00,,0831.5,4.99,0.00,30.5,27.9,00.0,39.1,31.7,34.6,0000.0,0012.84,0006.24,0005.49
2022-08-16 22:42:00,,0831.5,4.99,0.00,30.5,28.1,00.0,39.1,31.8,35.3,0000.0,0012.62,0006.25,0005.49
2022-08-16 22:43:00,,0831.5,5.01,0.00,30.6,28.2,00.0,39.1,31.9,36.2,0000.0,0012.34,0006.20,0005.49
2022-08-16 22:44:00,,0831.5,5.00,0.00,31.0,28.3,00.0,39.1,32.1,36.2,0000.0,0012.27,0006.14,0005.47
2022-08-16 22:45:00,,0831.5,4.99,0.00,31.3,28.4,00.0,39.1,32.3,34.5,0000.0,0012.17,0006.09,0005.44
2022-08-16 22:46:00,,0831.5,5.01,0.00,31.6,28.5,00.0,39.1,32.3,33.9,0000.0,0012.19,0006.06,0005.41
2022-08-16 22:47:00,,0831.5,4.99,0.00,31.7,28.6,00.0,39.2,32.3,32.8,0000.0,0012.17,0006.03,0005.37
2022-08-16 22:48:00,,0831.5,4.99,0.00,31.8,28.7,00.0,39.3,32.3,32.4,0000.0,0012.29,0005.99,0005.33
2022-08-16 22:49:00,,0831.5,4.99,0.00,31.8,28.8,00.0,39.4,32.3,32.6,0000.0,0012.05,0005.95,0005.30
2022-08-16 22:50:00,,0831.5,4.99,0.00,31.8,28.8,00.0,39.5,32.3,33.2,0000.0,0011.55,0005.90,0005.28
2022-08-16 22:51:00,,0831.5,4.99,0.00,31.8,28.9,00.0,39.5,32.3,32.9,0000.0,0011.17,0005.87,0005.26
2022-08-16 22:52:00,,0831.5,5.00,0.00,31.8,29.0,00.0,39.6,32.3,32.6,0000.0,0011.04,0005.83,0005.24
2022-08-16 22:53:00,,0831.5,5.01,0.00,31.8,28.7,00.0,39.6,32.3,32.9,0000.0,0010.94,0005.80,0005.22
2022-08-16 22:54:00,,0831.5,4.99,0.00,31.7,28.0,00.0,39.6,32.0,32.9,0000.0,0011.12,0005.82,0005.18
2022-08-16 22:55:00,,0831.5,5.01,0.00,31.5,27.5,00.0,39.6,31.9,33.3,0000.0,0010.70,0005.87,0005.17
2022-08-16 22:56:00,,0831.4,5.01,0.00,31.4,27.4,00.0,39.6,31.8,33.5,0000.0,0011.12,0005.86,0005.17
2022-08-16 22:57:00,,0831.5,4.99,0.00,31.3,27.4,00.0,39.6,31.8,33.4,0000.0,0011.82,0005.84,0005.16
2022-08-16 22:58:00,,0831.4,5.00,0.00,31.2,27.5,00.0,39.5,31.8,34.0,0000.0,0011.96,0005.83,0005.15
2022-08-16 22:59:00,,0831.4,4.99,0.00,31.1,27.7,00.0,39.5,31.9,34.6,0000.0,0011.19,0005.79,0005.13
